STARLINK-1679, 46557

Orbit data source: Space-Track

STARLINK-1679, 46557 is a payload satellite owned by SpaceX/Seattle (US) in LEO that was launched on Tue, 06 Oct 2020 UTC via an FALCON 9 launch vehicle from the Air Force Eastern Test Range (AFETR). Payload-class satellites include a variety of spacecraft equipped with specific instruments for various scientific and technological missions. These include communications satellites like Starlink; space stations such as the ISS; scientific satellites like the Hubble; Earth observation satellites from companies like Planet Labs, Umbra, and HawkEye 360; GPS; miniature CubeSats for education and research; and military/defense satellites.

Loading next visibility...
Identifier
46557, 2020-070AB
Orbit
LEO
Country
Flag of USUS
Related business
Manufacturer
SpaceX/Seattle
Mission
Operational Commercial Communications
Bus & Motor
STARLINK, Unknown motor
Mass
260 kg wet, ~248 kg dry
Launch date (UTC)
2020-10-06 (5 years ago)
Launch vehicle
FALCON 9
Launch site
Air Force Eastern Test Range (AFETR)
Object type
Payload
Rocket body
Debris
Shape & HBR
Box + 1 Pan, 4.4 m
Radar Cross Section
13.562 m², Large (>1 m²)

Expand to show TLE details & history
Last TLE update: 1 day ago

TLE from 1 day ago
0 STARLINK-1679
1 46557U 20070AB  25260.03399951  .00000587  00000-0  58317-4 0  9998
2 46557  53.0519 220.5633 0001544  83.0931 277.0234 15.06396901273558
Epoch: 2025-09-17T00:48Z
TLE epoch observation values (Epoch: 2025-09-17T00:48:57.557Z)
Latitude
Longitude
-147.89227°
Altitude
547.969 km
Speed
7.589 km/s
True Right ascension
14h 42m 15s
True Declination
0° 00' 00"
Sunlit
Object was in daylight at epoch
Visualization orbit readout
Latitude
Unknown
Longitude
Unknown
Altitude
Unknown
Speed
Unknown
Apparent Right ascension
Unknown
Apparent Declination
Unknown
Sunlit
N/A
Visualization observer readout
Local Sidereal Time
00:51:10
Azimuth
Unknown
Elevation
Unknown
Doppler factor
Unknown
Orbital elements
Apogee altitude
548.562 km
Perigee altitude
546.423 km
Semi-major axis
6,925.629 km
Eccentricity
0.00015
Inclination
53.0519°
RAAN
220.5633°
Arg. of periapsis
83.0931°
True anomaly
277.00584°
Mean anomaly
277.0234°
Eccentric anomaly
277.01462°
Mean motion
3.76577 °/min
Orbital period
95.6 mins
BSTAR
0.000058317
Loading maneuver chart data...
Computing Atmospheric mass density...
Loading historical data...
Loading historical data...
Loading historical data...
Loading historical data...
Loading historical data...
Loading historical data...
Loading historical data...

Documentation

Showing up to 5 results
|